This is the latest recevied weather packets stored in our database for station/object K7KAZ. If no packets are shown the sender has not sent any weather packets the latest 10 day(s).
| Time | Temp. | Humidity | Pressure | Rain* | Wind** | Luminosity | Snow |
|---|---|---|---|---|---|---|---|
| 1777475138 | 21.67° C | 25% | 1018.4 hPa | 0 mm | - | 274 W/m² | - |
| 1777474835 | 21.67° C | 25% | 1018.3 hPa | 0 mm | - | 267 W/m² | - |
| 1777474530 | 21.67° C | 26% | 1018.2 hPa | 0 mm | - | 164 W/m² | - |
| 1777474227 | 21.67° C | 28% | 1018 hPa | 0 mm | - | 232 W/m² | - |
| 1777473925 | 21.67° C | 28% | 1018.2 hPa | 0 mm | - | 218 W/m² | - |
| 1777473622 | 20.56° C | 30% | 1018.1 hPa | 0 mm | - | 201 W/m² | - |
| 1777473318 | 20° C | 31% | 1018.2 hPa | 0 mm | - | 153 W/m² | - |
| 1777473014 | 19.44° C | 32% | 1018.1 hPa | 0 mm | - | 172 W/m² | - |
| 1777472711 | 18.89° C | 32% | 1017.9 hPa | 0 mm | - | 146 W/m² | - |
| 1777472408 | 18.89° C | 32% | 1018.2 hPa | 0 mm | - | 113 W/m² | - |
| 1777472105 | 18.89° C | 31% | 1018.1 hPa | 0 mm | - | 117 W/m² | - |
| 1777471800 | 19.44° C | 31% | 1018.1 hPa | 0 mm | - | 132 W/m² | - |
| 1777471497 | 18.89° C | 32% | 1018.1 hPa | 0 mm | - | 114 W/m² | - |
| 1777471193 | 18.33° C | 32% | 1018.2 hPa | 0 mm | - | 105 W/m² | - |
| 1777470891 | 17.22° C | 32% | 1018.1 hPa | 0 mm | - | 92 W/m² | - |
| 1777470588 | 16.11° C | 34% | 1018 hPa | 0 mm | - | 86 W/m² | - |
| 1777470283 | 15.56° C | 34% | 1017.7 hPa | 0 mm | - | 65 W/m² | - |
| 1777469979 | 15° C | 35% | 1017.9 hPa | 0 mm | - | 51 W/m² | - |
| 1777469676 | 15° C | 35% | 1018 hPa | 0 mm | - | 45 W/m² | - |
| 1777469371 | 14.44° C | 34% | 1018.2 hPa | 0 mm | - | 37 W/m² | - |
| 1777469067 | 14.44° C | 33% | 1017.6 hPa | 0 mm | - | 28 W/m² | - |
| 1777468762 | 14.44° C | 35% | 1017.9 hPa | 0 mm | - | 28 W/m² | - |
| 1777468458 | 13.89° C | 33% | 1018 hPa | 0 mm | - | 23 W/m² | - |
| 1777468155 | 13.89° C | 33% | 1017.9 hPa | 0 mm | - | 20 W/m² | - |
| 1777467851 | 13.89° C | 33% | 1018 hPa | 0 mm | - | 15 W/m² | - |
* Rain latest hour (hover to see other rain measurements)
** Current wind speed in m/s (hover to see current wind gust speed)